Home   Weather   Macau   Past weeks
Flag for Macau

Past Weather in Macau, Macau — Yesterday and Last 2 Weeks

Now
82 °F

Scattered clouds.


Feels Like: 92 °F
Forecast: 88 / 83 °F
Wind: No wind

Location: Taipa

Current Time: May 30, 2020 at 5:53:36 pm

Latest Report: May 30, 2020 at 5:00 pm


Visibility: N/A

Pressure: 29.80 "Hg

Humidity: 89%

Dew Point: 79 °F

Location of MacauLocation

Past Weather in Macau — Graph

°F

Macau Temperature Yesterday

Maximum temperature yesterday: 86 °F (at 3:00 pm)
Minimum temperature yesterday: 81 °F (at 12:00 am)
Average temperature yesterday: 83 °F

High & Low Weather Summary for the Past Weeks

 TemperatureHumidityPressure
High90 °F (May 21, 2:00 pm)100% (May 21, 1:30 am)29.89 "Hg (May 21, 1:30 am)
Low75 °F (May 18, 4:19 pm)66% (May 17, 1:30 pm)29.56 "Hg (May 21, 3:00 pm)
Average82 °F88%29.72 "Hg
* Reported May 15 4:00 pm — May 30 4:00 pm, Macau. Weather by CustomWeather, © 2020

Note: Actual official high and low records may vary slightly from our data, if they occured in-between our weather recording intervals... More about our weather records

Macau Weather History for the Previous 24 Hours

Scroll right to see more
 ConditionsComfort  
Time TempWeatherWind HumidityBarometerVisibility
4:00 pm
Sat, May 30
81 °FSprinkles. Scattered clouds.5 mph94%29.80 "Hg6 mi
3:30 pm79 °FSprinkles. Scattered clouds.3 mph94%29.80 "HgN/A
3:00 pm79 °FSprinkles. Scattered clouds.5 mph94%29.80 "Hg6 mi
2:37 pm77 °FThunderstorms. Scattered clouds.3 mph100%29.83 "Hg6 mi
2:01 pm77 °FStrong thunderstorms. Scattered clouds.12 mph100%29.83 "Hg1 mi
1:44 pm82 °FThunderstorms. Scattered clouds.2 mph89%29.83 "HgN/A
1:30 pm81 °FThundershowers. Scattered clouds.2 mph94%29.83 "HgN/A
1:00 pm79 °FSprinkles. Scattered clouds.6 mph100%29.83 "HgN/A
12:30 pm79 °FSprinkles. Scattered clouds.7 mph94%29.86 "HgN/A
12:00 pm77 °FThunderstorms. Broken clouds.9 mph100%29.86 "Hg2 mi
11:30 am77 °FStrong thunderstorms. Broken clouds.6 mph100%29.86 "Hg1 mi
11:00 am75 °FThunderstorms. Broken clouds.5 mph100%29.89 "Hg1 mi
10:30 am75 °FStrong thunderstorms. Broken clouds.9 mph100%29.86 "Hg1 mi
10:00 am75 °FStrong thunderstorms. Broken clouds.8 mph100%29.89 "Hg1 mi
9:30 am75 °FThunderstorms. Broken clouds.7 mph100%29.86 "Hg3 mi
9:17 am75 °FThunderstorms. Broken clouds.9 mph100%29.86 "Hg5 mi
8:30 am75 °FStrong thunderstorms. Broken clouds.17 mph100%29.86 "Hg1 mi
8:00 am77 °FStrong thunderstorms. Broken clouds.12 mph100%29.86 "Hg1 mi
7:37 am79 °FThunderstorms. Broken clouds.13 mph94%29.83 "Hg4 mi
7:00 am79 °FThunderstorms. Broken clouds.5 mph94%29.83 "HgN/A
6:30 am79 °FThunderstorms. Broken clouds.8 mph94%29.80 "Hg5 mi
6:00 am81 °FThundershowers. Scattered clouds.5 mph89%29.80 "HgN/A
5:30 am84 °FThundershowers. Passing clouds.10 mph89%29.77 "HgN/A
5:00 am84 °FThundershowers. Passing clouds.14 mph89%29.77 "HgN/A
4:30 am82 °FThunderstorms. Passing clouds.8 mph94%29.77 "HgN/A
4:00 am82 °FThundershowers. Passing clouds.8 mph89%29.77 "HgN/A
3:00 am82 °FSprinkles. Passing clouds.12 mph89%29.80 "HgN/A
2:30 am82 °FPassing clouds.9 mph84%29.80 "HgN/A
2:00 am82 °FPassing clouds.8 mph94%29.80 "HgN/A
1:30 am82 °FPassing clouds.8 mph94%29.80 "HgN/A
1:00 am82 °FPassing clouds.10 mph94%29.80 "HgN/A
12:30 am82 °FPassing clouds.10 mph94%29.83 "HgN/A
12:00 am82 °FPassing clouds.9 mph94%29.83 "HgN/A
11:30 pm
Fri, May 29
82 °FPassing clouds.10 mph94%29.83 "HgN/A
11:00 pm82 °FPassing clouds.9 mph89%29.83 "HgN/A
10:30 pm82 °FPassing clouds.9 mph89%29.83 "HgN/A
10:00 pm82 °FPassing clouds.9 mph94%29.80 "HgN/A
9:30 pm82 °FPassing clouds.9 mph89%29.80 "HgN/A
9:00 pm82 °FPassing clouds.9 mph89%29.80 "HgN/A
8:30 pm82 °FPassing clouds.10 mph89%29.80 "HgN/A
8:00 pm82 °FPassing clouds.10 mph89%29.77 "HgN/A
7:30 pm84 °FPassing clouds.9 mph89%29.77 "HgN/A
7:00 pm84 °FScattered clouds.12 mph84%29.77 "HgN/A
6:30 pm84 °FScattered clouds.8 mph79%29.77 "HgN/A
6:00 pm84 °FScattered clouds.12 mph84%29.77 "HgN/A
5:30 pm84 °FScattered clouds.12 mph84%29.77 "HgN/A
5:00 pm86 °FScattered clouds.12 mph79%29.74 "HgN/A
Weather by CustomWeather, © 2020

See weather overview

Advertising